Simultaneous Nadir Overpasses (SNOs) Predictions

Prediction of SNOs between GOES-15 and NOAA-20 Satellite Orbit:

Table of predicted SNOs for the next 14.0 days since TLE Epoch: 2/25/2023
Index Date Time (GOES-15) GOES-15 Lat,Lon NOAA-20 Lat,Lon Distance(km) Time Diff (sec)
1 02/26/2023 10:11:35 0.10,-128.07 0.95,-131.78 423.40 80
2 02/27/2023 09:55:31 0.10,-128.06 -0.06,-127.26 90.69 80
3 03/01/2023 21:58:46 -0.11,-128.01 -0.10,-128.04 4.18 80
4 03/04/2023 09:59:11 0.12,-127.94 0.31,-128.78 95.28 80
5 03/05/2023 09:43:07 0.12,-127.92 -0.71,-124.25 418.30 80
6 03/06/2023 22:05:05 -0.12,-127.89 -0.51,-129.55 189.87 80
7 03/07/2023 21:43:41 -0.12,-127.86 0.52,-125.02 323.33 80
8 03/09/2023 10:05:31 0.12,-127.81 0.65,-130.30 282.94 80
9 03/10/2023 09:49:26 0.12,-127.78 -0.31,-125.76 230.25 80
